Zurück zum Katalog

STARLINK-5575

AktivKommunikationVLEO
NORAD 55381·PAYLOAD·🇺🇸 United States

Gestartet Jan 26, 2023 von Cape Canaveral Space Force Station

Loading…

Nächste Überflüge (nächste 24 Stunden)

TLE

AktuellSource: CelesTrak SupGP

Epoche: Sep 14, 2026, 21:08 UTC

1 55381C 23013BC  26257.88104167 -.00033499  00000+0 -12132-2 0  2575
2 55381  43.0027 329.9137 0001947 274.6412 117.0039 15.27596844    14

Verfolge STARLINK-5575 in Echtzeit mit AllMySat

Download on the App Store